Flag for United Kingdom Weather past 2 weeks in Perth, Scotland, United Kingdom

Now
50 °F

Rain showers. Overcast.


Feels Like: 45 °F
Forecast: 49 / 54 °F
Wind: 13 mph from Southwest

Location: Strathallan

Current Time: Oct 25, 2014 at 7:41:55 AM

Latest Report: Oct 25, 2014 at 7:00 AM


Visibility: 11 mi

Pressure: 29.64 "Hg

Humidity: 84%

Dew point: 46 °F

Location of PerthLocation

Historic Weather in Perth — Graph

°F

Perth temperature yesterday

Maximum temperature yesterday: 52 °F (at 12:00 PM)
Minimum temperature yesterday: 46 °F (at 9:00 AM)
Average temperature yesterday: 49 °F

Past Weeks' High & Low Weather Summary

 TemperatureHumidityPressure
High63 °F (Oct 17, 3:00 PM)99% (Oct 10, 6:00 AM)30.06 "Hg (Oct 10, 6:00 AM)
Low33 °F (Oct 14, 4:00 AM)51% (Oct 21, 12:00 PM)28.94 "Hg (Oct 21, 6:00 AM)
Average50 °F86%29.70 "Hg
* Reported Oct 10 6:00 AM — Oct 25 6:00 AM, Perth, Weather by CustomWeather, © 2014

Note: Actual official high and low records may vary slightly from our data, if they occured in-between our weather recording intervals... More about our weather records

Advertising

Perth weather history for previous 24 hours

 ConditionsComfort  
Time TempWeatherWind HumidityBarometerVisibility
6:00 AM
Oct 25
51 °FCool.15 mph80%29.65 "Hg25 mi
5:00 AM50 °FCool.12 mph79%29.66 "Hg19 mi
4:00 AM50 °FCool.14 mph80%29.67 "Hg25 mi
3:00 AM50 °FCool.9 mph80%29.68 "Hg7 mi
2:00 AM49 °FCool.9 mph80%29.69 "Hg31 mi
1:00 AM50 °FRain showers. Overcast.8 mph82%29.70 "Hg25 mi
12:00 AM49 °FCool.9 mph85%29.70 "Hg31 mi
11:00 PM
Oct 24
47 °FCool.8 mph94%29.71 "Hg17 mi
10:00 PM47 °FLots of rain. Overcast.16 mph88%29.70 "Hg28 mi
9:00 PM48 °FLots of rain. Overcast.9 mph91%29.70 "Hg7 mi
8:00 PM48 °FCool.12 mph91%29.70 "Hg25 mi
7:00 PM48 °FRain showers. Overcast.8 mph88%29.70 "Hg25 mi
6:00 PM50 °FCool.14 mph80%29.69 "Hg28 mi
5:00 PM50 °FCool.15 mph78%29.68 "Hg25 mi
4:00 PM50 °FCool.15 mph77%29.70 "Hg25 mi
2:00 PM51 °FLight freezing rain. Cloudy.18 mph74%29.72 "Hg17 mi
1:00 PM52 °FCool.13 mph75%29.72 "Hg16 mi
12:00 PM52 °FCool.14 mph71%29.73 "Hg31 mi
11:00 AM51 °FCool.14 mph77%29.74 "Hg16 mi
10:00 AM49 °FCool.7 mph85%29.75 "Hg19 mi
9:00 AM46 °FRain showers. Cloudy.7 mph92%29.75 "Hg11 mi
8:00 AM47 °FRain showers. Overcast.8 mph91%29.74 "Hg9 mi
7:00 AM47 °FCool.8 mph85%29.73 "Hg19 mi
Weather by CustomWeather, © 2014

See weather overviewHow to use our weather pages